Regional Weather Roundup
Issued by NWS

Home | Current Version | Previous Version | Graphics & Text | Print | Product List | Glossary On
Versions: 1 2 3 4 5 6 7 8 9 10 11 12 13 14 15 16 17 18 19 20 21 22 23 24 25 26 27 28 29 30 31 32 33 34 35 36 37 38 39 40 41 42 43 44 45 46 47 48 49 50
000
ASUS44 KMEG 232310
RWRTN
TENNESSEE HOURLY STATE WEATHER ROUNDUP
NATIONAL WEATHER SERVICE MEMPHIS TN
500 PM CST MON JAN 23 2017

TNZ002-004-019-021-049-052-054-088>092-240000-
WEST TENNESSEE

CITY           SKY/WX    TMP DP  RH WIND       PRES   REMARKS
MEMPHIS INTL   MOCLDY    49  38  65 N5        29.83R
NWS MEMPHIS      N/A     48 N/A N/A MISG        N/A
JACKSON        CLOUDY    48  39  71 NW12      29.81R
DYERSBURG      CLOUDY    46  37  71 N7        29.82R
UNION CITY     CLOUDY    43  36  75 NW12      29.81R
PARIS          CLOUDY    43  36  75 CALM      29.79S
HUNTINGDON     CLOUDY    45  37  76 N9        29.79S
$$

TNZ008-025-027-028-033-062-065-066-240000-
NORTH MIDDLE TENNESSEE

CITY           SKY/WX    TMP DP  RH WIND       PRES   REMARKS
NASHVILLE      CLOUDY    47  37  68 NW8G20    29.75R
PORTLAND       CLOUDY    45  39  81 NW7G14    29.73R
CLARKSVILLE    CLOUDY    44  36  73 NW14      29.77R
SMYRNA         CLOUDY    46  39  76 NW16      29.75R
GALLATIN       CLOUDY    46  39  76 NW9G20    29.76R
CROSSVILLE     CLOUDY    42  41  96 NW14G21   29.62R FOG
$$

TNZ061-075-076-078-094-096-097-240000-
SOUTH MIDDLE TENNESSEE

CITY           SKY/WX    TMP DP  RH WIND       PRES   REMARKS
TULLAHOMA      CLOUDY    45  39  81 N14       29.70R
WINCHESTER     CLOUDY    46  41  81 N6        29.69R
MCMINNVILLE    CLOUDY    45  43  93 W8          N/A
COLUMBIA       MOCLDY    52  43  71 NW7       29.73R
SHELBYVILLE    CLOUDY    48  43  81 N7        29.72S
$$

TNZ017-018-042-046-047-240000-
NORTHEAST TENNESSEE

CITY           SKY/WX    TMP DP  RH WIND       PRES   REMARKS
TRI CITIES     CLOUDY    50  47  89 W6        29.44R FOG
ELIZABETHTON   CLOUDY    50  46  87 NW7G16    29.43R
$$

TNZ012-013-036-069-073-074-240000-
CENTRAL EAST TENNESSEE

CITY           SKY/WX    TMP DP  RH WIND       PRES   REMARKS
KNOXVILLE      CLOUDY    51  45  79 W15       29.55R
OAK RIDGE      LGT RAIN  53  44  71 W5        29.57R
GATLINBURG     CLOUDY    50  45  81 W8        29.53R
MORRISTOWN     CLOUDY    50  46  87 NW12      29.50R
JACKSBORO      CLOUDY    48  45  87 CALM      29.58R
$$

TNZ083-085-099-240000-
SOUTHEAST TENNESSEE

CITY           SKY/WX    TMP DP  RH WIND       PRES   REMARKS
CHATTANOOGA    MOCLDY    51  42  71 VRB7      29.65R
$$

SKY/WX REPORTED AS FAIR MEANS FEW OR NO CLOUDS BELOW
12 THOUSAND FEET.





USA.gov is the U.S. government's official web portal to all federal, state and local government web resources and services.